weather.gov     
National Weather Service

Regional Weather Roundup
NWS Homepage
This page is being discontinued on March 12, 2014.
The same data is available at this site. Please update your bookmarks.
Thank you, and we apologize for the inconvenience.
Please send an email to SR-SRH.Webmaster@noaa.gov with any concerns.


Current Version
Previous Version:    01  02  03  04  05  06  07  08  09  10  11  12  13  14  15  16  17  18  19  20  21  22  23  24  25  26  27  28  29  30  
   31  32  33  34  35  36  37  38  39  40  41  42  43  44  45  46  47  48  49  50  51  52  53  
[Printable]
604
ASCA42 TJSJ 241611
RWRPR
PUERTO RICO/U.S. VIRGIN ISLANDS HOURLY WEATHER ROUNDUP
NATIONAL WEATHER SERVICE SAN JUAN PR
1200 PM AST FRI OCT 24 2014

PRZ001-004-241700-
PUERTO RICO

CITY           SKY/WX    TMP DP  RH WIND       PRES   REMARKS
SAN JUAN LMM   MOSUNNY   91  73  55 SE8G18    29.92F HX 100
PONCE          MOSUNNY   91  75  59 SE9       29.92F HX 102
MAYAGUEZ       PTSUNNY   88  72  58 W8        29.95  HX  94
AGUADILLA      MOSUNNY   86  75  70 NE7       29.95F HX  95
CEIBA          SUNNY     90  75  62 S13       29.97F HX 100
$$

PRZ006-007-241700-
U.S. VIRGIN ISLANDS

CITY           SKY/WX    TMP DP  RH WIND       PRES   REMARKS
CHRISTIANSTED  MOSUNNY   90  75  62 E14       29.96F HX 100
$$

HOURLY WEATHER ROUNDUP FOR THE NEWS MEDIA

CITY           SKY/WX    TMP DP  RH WIND       PRES   REMARKS
MIAMI          LGT RAIN  78  71  79 NE15G28   29.88S
ORLANDO        MOSUNNY   76  61  59 E6        29.99F
NEW YORK       PTSUNNY   59  42  53 NW20      29.81F
NEWARK         PTSUNNY   60  43  53 N18G29    29.82F
CHICAGO        PTSUNNY   58  47  66 VRB6      30.05F
HARTFORD       CLOUDY    52  48  86 N7        29.69S
BOSTON         CLOUDY    50  47  89 NW10      29.71S
DALLAS         MOSUNNY   71  55  56 SW7       30.18S
PHILADELPHIA   MOSUNNY   65  44  46 NW14      29.87F




U.S. Dept. of Commerce
NOAA National Weather Service
1325 East West Highway
Silver Spring, MD 20910
E-mail: w-nws.webmaster@noaa.gov
Page last modified: May 16, 2007
NATIONAL WEATHER SERVICE: for Safety, for Work, for Fun - FOR LIFE